Regional Weather Roundup
Issued by NWS Jackson, KY

Home | Current Version | Previous Version | Text Only | Print | Product List | Glossary Off
Versions: 1 2 3 4 5 6 7 8 9 10 11 12 13 14 15 16 17 18 19 20 21 22 23 24 25 26 27 28 29 30 31 32 33 34 35 36 37 38 39 40 41 42 43 44 45 46 47 48 49 50

000
ASUS43 KJKL 291710
RWRJKL

EAST KENTUCKY HOURLY WEATHER ROUNDUP
NATIONAL WEATHER SERVICE JACKSON KY
100 PM EDT FRI AUG 29 2014

NOTE: "FAIR" INDICATES FEW OR NO CLOUDS BELOW 12,000 FEET WITH
NO SIGNIFICANT WEATHER AND/OR OBSTRUCTIONS TO VISIBILITY.

* THESE REPORTS ARE NOT UNDER NWS QUALITY CONTROL AND MAY NOT
  REPORT WEATHER SUCH AS PRECIPITATION AND FOG.

KYZ079-080-083-085-087-088-110-112-115-119-120-291800
...EASTERN KENTUCKY...

CITY           SKY/WX    TMP DP  RH WIND       PRES   REMARKS
JACKSON        SUNNY     84  70  62 CALM      30.11F
LONDON         PTSUNNY   86  69  56 SW6       30.10F HX  90
SOMERSET*      SUNNY     86  66  51 CALM      30.09F
MONTICELLO*    MOSUNNY   90  68  48 W6        30.09F HX  94
WILLIAMSBURG*  SUNNY     84  72  65 CALM      30.09F
MIDDLESBORO*   SUNNY     86  71  60 SE5       30.10F HX  91
HARLAN APT*    MOSUNNY   84  66  54 MISG      30.12F
HAZARD APT*    SUNNY     84  68  58 CALM      30.11F
BLACK MTN*       N/A     77  68  73 SW5         N/A
PIKEVILLE APT* SUNNY     81  70  69 CALM      30.12F
BIG SANDY*     SUNNY     83  71  66 CALM      30.11F
MOREHEAD APT*  SUNNY     82  66  57 CALM      30.12F
$$

KYZ035-036-041-042-044-050-067-078-099-291800
...CENTRAL KENTUCKY...

CITY           SKY/WX    TMP DP  RH WIND       PRES   REMARKS
MT STERLING*   SUNNY     84  70  61 S6        30.11F
FLEMING/MASON* SUNNY     82  64  54 SE6       30.11S
DANVILLE*      SUNNY     88  70  55 SW6       30.09F HX  92
RICHMOND*      SUNNY     86  70  58 SW6       30.08F HX  90
LEXINGTON      SUNNY     87  71  58 VRB5      30.08F HX  93
FRANKFORT      SUNNY     86  71  60 S7        30.06F HX  91
$$

KYZ091>093-OHZ055-061-077-WVZ005-015-034-035-042-291800
...SOUTHERN OHIO/WEST VIRGINIA...

CITY           SKY/WX    TMP DP  RH WIND       PRES   REMARKS
COVINGTON      MOSUNNY   84  63  49 SE10      30.08F
COLUMBUS       MOSUNNY   80  55  42 VRB6      30.12F
DAYTON         MOSUNNY   80  62  54 SE9       30.12F
WILMINGTON     SUNNY     77  63  61 SE8       30.11F
HUNTINGTON     SUNNY     81  66  60 SE5       30.10F
CHARLESTON     MOSUNNY   81  66  60 CALM      30.11F
PINEVILLE*     SUNNY     84  71  63 MISG      30.20F
BECKLEY        SUNNY     76  63  64 SE8       30.20F
BLUEFIELD      SUNNY     76  62  62 S7        30.23F
$$

VAZ002-007-008-TNZ017-027-036-066-071-291800
...SOUTHWEST VIRGINIA/EAST TENNESSEE...

CITY           SKY/WX    TMP DP  RH WIND       PRES   REMARKS
WISE*          PTSUNNY   82  64  54 W7        30.21S
JONESVILLE*      N/A     84  70  61 CALM      30.14F
ABINGDON*      PTSUNNY   83  67  58 NW3       30.17F
BRISTOL        MOSUNNY   87  66  49 NW3       30.13F
KNOXVILLE      MOSUNNY   88  69  53 VRB5      30.08F HX  92
OAK RIDGE      SUNNY     88  70  55 CALM      30.10F HX  93
CROSSVILLE     PTSUNNY   82  59  45 VRB3      30.14F
NASHVILLE      MOSUNNY   92  57  30 SW8G18    30.04F HX  90
$$

...KEY TO REMARKS...
VSB - VISIBILITY IN MILES
WCI - WIND CHILL INDEX
HX  - HEAT INDEX

$$


USA.gov is the U.S. government's official web portal to all federal, state and local government web resources and services.